Weather in Astrakhanka

Ukraine / Zaporizhia Region     46°57′19″N   35°39′52″E
temp.,
°C
wind,
m/s
gust,
m/s
humid.,
%
clouds,
%
prec.,
mm/h
press.,
hPa
HPBL,
m
14 may, fri
fri1400:00+14e498864 0.0 1010145
03:00+14ese36915 0.0 1009100
06:00+14se3594100 0.0 1009125
09:00+20s4470100 0.1 1010415
12:00+25sw454197 0.0 1010938
15:00+26sw343497 0.0 10101509
18:00+24ssw464746 0.0 1010485
21:00+16sw477091 0.0 1011107
15 may, sat
sat1500:00+15w3377100 0.0 101243
03:00+13wnw22691 0.0 101321
06:00+13wnw22721 0.0 101325
09:00+19ssw1150100 0.0 1014386
12:00+23sw34415 0.0 10141305
15:00+25ssw443787 0.0 10131999
18:00+22s4449100 0.0 1013514
21:00+17s2261100 0.0 101312
16 may, sun
sun1600:00+15wnw116597 0.0 101311
03:00+14nne337292 0.0 101223
06:00+15nne3572100 0.0 101273
09:00+22ne4556100 0.0 1011409
12:00+26ne3439100 0.0 10101404
15:00+28ne453892 0.0 10081904
18:00+28ne4648100 0.0 1006633
21:00+18s2387100 2.5 100640
17 may, mon
mon1700:00+18nne4787100 0.8 1004113
03:00+17sse4688100 1.8 1005137
06:00+17nw3595100 0.8 1003107
09:00+21wsw227383 0.9 1005463
12:00+24sw1161100 0.5 10051083
15:00+25sw3459100 0.7 10061262
18:00+23wnw466595 0.2 1006790
21:00+19se017899 0.3 100811
18 may, tue
tue1800:00+17w4782100 0.4 1010148
03:00+15wsw368487 0.8 1010138
06:00+14sw23885 0.0 1011101
09:00+19wsw34720 0.0 1012644
12:00+24wsw55480 0.0 10131602
15:00+25wsw56390 0.0 10121970
18:00+24sw34465 0.0 10121610
21:00+17ssw48739 0.0 1012159